KA5FVT Weather Reports


Display with metric or nautical units.
time (UTC)temp
F
wind
direction
speed
MPH
gust
MPH
rain 1hr
in
rain 24hr
in
rain mn
in
humidity
%
barometer
mb
20260507122427 65 304 1.0 2.0 0.00 0.00 0.00 85 1014.8
20260507121927 65 304 0.0 2.0 0.00 0.00 0.00 85 1014.9
20260507121427 65 304 1.0 2.0 0.00 0.00 0.00 85 1014.3
20260507120927 65 304 1.0 2.0 0.00 0.00 0.00 85 1014.5
20260507120427 65 304 0.0 2.0 0.00 0.00 0.00 85 1014.3
20260507115927 65 323 0.0 3.0 0.00 0.00 0.00 85 1014.3
20260507115427 66 323 1.0 2.0 0.00 0.00 0.00 85 1014.2
20260507114927 66 323 0.0 2.0 0.00 0.00 0.00 85 1014.3
20260507114427 66 323 1.0 3.0 0.00 0.00 0.00 84 1014.2
20260507113927 66 276 1.0 2.0 0.00 0.00 0.00 84 1013.9
20260507113430 66 319 1.0 2.0 0.00 0.00 0.00 84 1013.9
20260507112927 66 319 0.0 2.0 0.00 0.00 0.00 84 1013.6
20260507112427 66 0 2.0 2.0 0.00 0.00 0.00 84 1013.5
20260507111930 66 0 0.0 2.0 0.00 0.00 0.00 84 1013.7
20260507111427 66 0 0.0 0.0 0.00 0.00 0.00 84 1013.9
20260507110927 66 0 0.0 2.0 0.00 0.00 0.00 84 1014.0
20260507110426 67 12 1.0 1.0 0.00 0.00 0.00 84 1013.4
20260507105930 67 12 0.0 1.0 0.00 0.00 0.00 84 1013.4
20260507105427 67 16 1.0 2.0 0.00 0.00 0.00 84 1013.4
20260507104927 67 304 0.0 0.0 0.00 0.00 0.00 84 1013.3
20260507104427 67 304 0.0 1.0 0.00 0.00 0.00 85 1013.3
20260507103927 67 304 0.0 2.0 0.00 0.00 0.00 85 1013.4
20260507103427 67 304 0.0 1.0 0.00 0.00 0.00 85 1013.3
20260507102927 67 304 1.0 1.0 0.00 0.00 0.00 85 1013.4
20260507102427 67 304 0.0 0.0 0.00 0.00 0.00 85 1013.2
20260507101927 67 304 0.0 1.0 0.00 0.00 0.00 84 1013.2
20260507101427 67 304 0.0 2.0 0.00 0.00 0.00 85 1013.2
20260507100930 67 304 1.0 1.0 0.00 0.00 0.00 85 1013.2
20260507100427 67 304 0.0 1.0 0.00 0.00 0.00 85 1013.1
20260507095927 67 304 0.0 2.0 0.00 0.00 0.00 85 1013.0
20260507095427 67 304 0.0 2.0 0.00 0.00 0.00 85 1012.9
20260507094927 67 304 1.0 2.0 0.00 0.00 0.00 84 1013.1
20260507094428 67 304 0.0 2.0 0.00 0.00 0.00 84 1013.0
20260507093927 67 80 0.0 1.0 0.00 0.00 0.00 85 1012.4
20260507093427 67 80 0.0 1.0 0.00 0.00 0.00 84 1012.5
20260507092930 67 80 0.0 1.0 0.00 0.00 0.00 85 1012.6
20260507092429 67 80 1.0 2.0 0.00 0.00 0.00 85 1012.6
20260507091927 67 299 1.0 2.0 0.00 0.00 0.00 84 1012.6
20260507091427 67 296 1.0 2.0 0.00 0.00 0.00 84 1012.8
20260507090927 67 309 0.0 1.0 0.00 0.00 0.00 84 1012.8
20260507090426 67 309 0.0 1.0 0.00 0.00 0.00 84 1012.9
20260507085930 67 309 0.0 2.0 0.00 0.00 0.00 84 1012.9
20260507085427 67 309 1.0 2.0 0.00 0.00 0.00 84 1012.7
20260507084927 67 309 0.0 2.0 0.00 0.00 0.00 84 1012.7
20260507084427 67 309 0.0 4.0 0.00 0.00 0.00 84 1013.0
20260507083927 67 300 1.0 1.0 0.00 0.00 0.00 84 1012.9
20260507083427 67 300 0.0 2.0 0.00 0.00 0.00 83 1012.7
20260507082926 67 300 0.0 2.0 0.00 0.00 0.00 84 1012.6
20260507082427 67 300 1.0 2.0 0.00 0.00 0.00 84 1012.7
20260507081926 67 300 0.0 3.0 0.00 0.00 0.00 83 1012.7
20260507081427 67 313 0.0 2.0 0.00 0.00 0.00 83 1012.7
20260507080927 67 313 2.0 2.0 0.00 0.00 0.00 83 1012.8
20260507080427 67 317 1.0 2.0 0.00 0.00 0.00 83 1012.5
20260507075930 68 312 0.0 2.0 0.00 0.00 0.00 83 1012.7
20260507075426 67 312 1.0 2.0 0.00 0.00 0.00 83 1012.6
20260507074927 68 312 0.0 2.0 0.00 0.00 0.00 83 1012.7
20260507074427 67 312 1.0 1.0 0.00 0.00 0.00 83 1013.0
20260507073930 67 312 0.0 1.0 0.00 0.00 0.00 83 1012.9
20260507073427 68 312 0.0 2.0 0.00 0.00 0.00 83 1012.8
20260507072927 68 312 1.0 2.0 0.00 0.00 0.00 83 1013.0
20260507072426 68 312 0.0 3.0 0.00 0.00 0.00 83 1012.9
20260507071927 68 312 3.0 2.0 0.00 0.00 0.00 83 1013.0
20260507071426 68 306 0.0 3.0 0.00 0.00 0.00 83 1013.0
20260507070927 68 310 0.0 3.0 0.00 0.00 0.00 82 1013.3
20260507070427 68 329 0.0 2.0 0.00 0.00 0.00 82 1013.3
20260507065930 68 340 0.0 3.0 0.00 0.00 0.00 82 1013.1
20260507065430 68 340 0.0 3.0 0.00 0.00 0.00 82 1012.9
20260507064929 68 0 1.0 2.0 0.00 0.00 0.00 82 1012.9
20260507064427 68 323 1.0 4.0 0.00 0.00 0.00 82 1013.3
20260507063930 68 309 0.0 2.0 0.00 0.00 0.00 82 1013.4
20260507063427 68 309 0.0 1.0 0.00 0.00 0.00 82 1012.9
20260507062930 68 309 0.0 2.0 0.00 0.00 0.00 82 1013.0
20260507062427 68 309 0.0 1.0 0.00 0.00 0.00 82 1013.4
20260507061926 68 309 1.0 2.0 0.00 0.00 0.00 82 1013.3
20260507061427 68 307 1.0 3.0 0.00 0.00 0.00 81 1012.9
20260507060927 68 329 1.0 3.0 0.00 0.00 0.00 81 1012.8
20260507060427 69 316 1.0 2.0 0.00 0.00 0.00 81 1012.8
20260507055927 69 316 1.0 2.0 0.00 0.00 0.00 81 1013.0
20260507055427 69 316 0.0 1.0 0.00 0.00 0.00 81 1012.8
20260507054927 69 316 0.0 3.0 0.00 0.00 0.00 81 1012.8
20260507054427 69 323 1.0 2.0 0.00 0.00 0.00 81 1012.9
20260507053926 69 323 1.0 3.0 0.00 0.00 0.00 80 1012.8
20260507053427 69 256 2.0 2.0 0.00 0.00 0.00 81 1012.7
20260507052927 69 256 1.0 3.0 0.00 0.00 0.00 80 1012.6
20260507052427 70 355 2.0 3.0 0.00 0.00 0.00 80 1012.8
20260507051927 70 311 1.0 2.0 0.00 0.00 0.00 80 1012.7
20260507051429 70 311 1.0 1.0 0.00 0.00 0.00 81 1012.6
20260507050926 70 311 1.0 2.0 0.00 0.00 0.00 80 1012.7
20260507050430 70 311 1.0 2.0 0.00 0.00 0.00 80 1012.7
20260507045927 70 303 1.0 2.0 0.00 0.00 0.00 81 1012.7
20260507045427 70 327 0.0 2.0 0.00 0.00 0.00 80 1012.7
20260507044927 70 327 1.0 3.0 0.00 0.00 0.00 80 1012.7
20260507044428 70 327 2.0 3.0 0.00 0.00 0.00 80 1012.8
20260507043927 71 304 1.0 3.0 0.00 0.00 0.00 79 1012.7
20260507043427 71 296 1.0 2.0 0.00 0.00 0.00 79 1012.7
20260507042927 71 321 0.0 1.0 0.00 0.00 0.00 80 1012.7
20260507042427 71 321 0.0 2.0 0.00 0.00 0.00 80 1012.7
20260507041930 71 321 0.0 1.0 0.00 0.00 0.00 80 1012.6
20260507041426 71 321 1.0 2.0 0.00 0.00 0.00 80 1012.6
20260507040930 72 321 0.0 2.0 0.00 0.00 0.00 80 1012.6
20260507040426 72 321 0.0 1.0 0.00 0.00 0.00 80 1012.6
20260507035927 72 321 0.0 2.0 0.00 0.00 0.00 80 1012.5
20260507035427 72 321 0.0 1.0 0.00 0.00 0.00 80 1012.6
20260507034928 72 323 1.0 3.0 0.00 0.00 0.00 80 1012.5
20260507034427 72 311 0.0 3.0 0.00 0.00 0.00 80 1012.4
20260507033930 72 338 0.0 3.0 0.00 0.00 0.00 80 1012.4
20260507033427 72 306 1.0 2.0 0.00 0.00 0.00 80 1012.4
20260507032926 72 306 1.0 2.0 0.00 0.00 0.00 80 1012.2
20260507032427 72 306 2.0 2.0 0.00 0.00 0.00 80 1012.1
20260507031930 72 320 0.0 1.0 0.00 0.00 0.00 80 1011.9
20260507031427 72 320 0.0 2.0 0.00 0.00 0.00 79 1011.8
20260507030926 73 320 2.0 3.0 0.00 0.00 0.00 79 1011.8
20260507030427 73 320 1.0 2.0 0.00 0.00 0.00 80 1011.6
20260507025931 73 320 0.0 2.0 0.00 0.00 0.00 79 1011.6
20260507025427 73 320 0.0 2.0 0.00 0.00 0.00 80 1011.4
20260507024927 73 320 1.0 2.0 0.00 0.00 0.00 79 1011.4
20260507024427 73 320 1.0 3.0 0.00 0.00 0.00 79 1011.4
20260507023926 74 320 0.0 3.0 0.00 0.00 0.00 79 1011.3
20260507023430 74 319 2.0 2.0 0.00 0.00 0.00 80 1011.1
20260507022927 74 319 0.0 3.0 0.00 0.00 0.00 79 1010.9
20260507022427 74 322 2.0 2.0 0.00 0.00 0.00 79 1010.8
20260507021927 74 322 0.0 2.0 0.00 0.00 0.00 80 1010.7
20260507021427 74 322 1.0 2.0 0.00 0.00 0.00 79 1010.7
20260507020927 75 322 1.0 1.0 0.00 0.00 0.00 80 1010.5
20260507020427 75 322 0.0 0.0 0.00 0.00 0.00 81 1010.4
20260507015927 75 322 0.0 1.0 0.00 0.00 0.00 81 1010.3
20260507015427 75 322 1.0 2.0 0.00 0.00 0.00 81 1010.2
20260507014927 75 322 0.0 2.0 0.00 0.00 0.00 80 1010.1
20260507014427 75 322 0.0 2.0 0.00 0.00 0.00 80 1010.0
20260507013927 75 322 1.0 3.0 0.00 0.00 0.00 80 1010.0
20260507013427 75 322 0.0 3.0 0.00 0.00 0.00 81 1009.9
20260507012927 76 321 1.0 3.0 0.00 0.00 0.00 81 1009.7
20260507012427 76 331 1.0 3.0 0.00 0.00 0.00 81 1009.6
20260507011930 76 319 0.0 2.0 0.00 0.00 0.00 81 1009.5
20260507011431 76 319 0.0 2.0 0.00 0.00 0.00 81 1009.5
20260507010427 77 319 0.0 2.0 0.00 0.00 0.00 81 1009.4
20260507005927 77 319 0.0 2.0 0.00 0.00 0.00 80 1009.2
20260507005427 77 319 1.0 2.0 0.00 0.00 0.00 80 1009.0
20260507004930 77 319 1.0 2.0 0.00 0.00 0.00 79 1009.0
20260507004427 78 333 1.0 2.0 0.00 0.00 0.00 79 1009.0
20260507003930 78 340 1.0 2.0 0.00 0.00 0.00 78 1008.9
20260507003427 79 340 0.0 2.0 0.00 0.00 0.00 77 1008.7
20260507002929 79 339 1.0 2.0 0.00 0.00 0.00 76 1008.8
20260507002427 80 339 1.0 5.0 0.00 0.00 0.00 75 1008.6
20260507001930 82 328 1.0 3.0 0.00 0.00 0.00 75 1008.5
20260507001426 83 329 1.0 3.0 0.00 0.00 0.00 74 1008.4
20260507000927 84 325 1.0 2.0 0.00 0.00 0.00 81 1008.0
20260507000428 84 325 0.0 0.0 0.00 0.00 0.00 81 1008.0
20260506235926 84 325 0.0 0.0 0.00 0.00 0.00 81 1007.9
20260506235426 84 325 0.0 0.0 0.00 0.00 0.00 80 1008.0
20260506234926 84 325 0.0 0.0 0.00 0.00 0.00 80 1008.1
20260506234427 84 325 0.0 0.0 0.00 0.00 0.00 80 1008.1
20260506233926 84 325 0.0 0.0 0.00 0.00 0.00 80 1007.9
20260506233427 84 325 0.0 0.0 0.00 0.00 0.00 81 1007.9
20260506232927 84 325 0.0 0.0 0.00 0.00 0.00 80 1007.9
20260506232427 84 325 0.0 2.0 0.00 0.00 0.00 80 1007.8
20260506231927 84 325 0.0 0.0 0.00 0.00 0.00 80 1007.8
20260506231426 84 325 0.0 0.0 0.00 0.00 0.00 81 1007.8
20260506230927 84 325 0.0 0.0 0.00 0.00 0.00 81 1007.9
20260506230430 84 325 0.0 0.0 0.00 0.00 0.00 81 1007.9
20260506225927 84 325 0.0 0.0 0.00 0.00 0.00 81 1007.9
20260506225427 84 325 0.0 0.0 0.00 0.00 0.00 80 1008.0
20260506224926 85 325 0.0 0.0 0.00 0.00 0.00 80 1007.9
20260506224427 85 325 0.0 0.0 0.00 0.00 0.00 80 1007.9
20260506223927 85 325 0.0 0.0 0.00 0.00 0.00 79 1007.8
20260506223427 85 325 0.0 0.0 0.00 0.00 0.00 79 1007.8
20260506222926 85 325 0.0 1.0 0.00 0.00 0.00 78 1007.8
20260506222427 85 325 0.0 0.0 0.00 0.00 0.00 79 1007.7
20260506221927 85 325 0.0 0.0 0.00 0.00 0.00 79 1007.7
20260506221427 85 325 0.0 0.0 0.00 0.00 0.00 78 1007.6
20260506220926 85 325 0.0 0.0 0.00 0.00 0.00 78 1007.6
20260506220427 85 325 0.0 1.0 0.00 0.00 0.00 78 1007.5
20260506215927 85 325 0.0 2.0 0.00 0.00 0.00 78 1007.6
20260506215427 85 325 1.0 2.0 0.00 0.00 0.00 78 1007.6
20260506214927 85 325 0.0 1.0 0.00 0.00 0.00 81 1007.5
20260506214429 84 325 0.0 0.0 0.00 0.00 0.00 81 1007.6
20260506213930 84 325 0.0 1.0 0.00 0.00 0.00 80 1007.8
20260506213429 84 325 0.0 2.0 0.00 0.00 0.00 79 1007.8
20260506212926 85 325 0.0 1.0 0.00 0.00 0.00 79 1007.8
20260506212427 85 325 0.0 1.0 0.00 0.00 0.00 79 1007.6
20260506211927 85 325 0.0 2.0 0.00 0.00 0.00 78 1007.6
20260506211431 85 325 1.0 2.0 0.00 0.00 0.00 78 1007.6
20260506210927 85 325 0.0 0.0 0.00 0.00 0.00 78 1007.5
20260506210426 85 325 0.0 0.0 0.00 0.00 0.00 77 1007.7
20260506205927 85 325 0.0 0.0 0.00 0.00 0.00 77 1007.7
20260506205426 86 325 0.0 1.0 0.00 0.00 0.00 77 1007.8
20260506204927 86 325 1.0 1.0 0.00 0.00 0.00 76 1007.9
20260506204426 86 325 0.0 0.0 0.00 0.00 0.00 78 1008.0
20260506203927 86 325 0.0 0.0 0.00 0.00 0.00 77 1008.1
20260506203430 86 325 0.0 0.0 0.00 0.00 0.00 76 1008.1
20260506202927 86 325 0.0 0.0 0.00 0.00 0.00 76 1008.0
20260506202427 86 325 0.0 1.0 0.00 0.00 0.00 75 1008.1
20260506201930 86 325 0.0 1.0 0.00 0.00 0.00 76 1008.1
20260506201426 86 325 0.0 3.0 0.00 0.00 0.00 75 1008.1
20260506200927 86 36 0.0 1.0 0.00 0.00 0.00 75 1008.3
20260506200427 86 36 0.0 1.0 0.00 0.00 0.00 76 1008.4
20260506195927 86 36 0.0 1.0 0.00 0.00 0.00 76 1008.4
20260506195426 86 25 0.0 0.0 0.00 0.00 0.00 75 1008.5
20260506194930 86 25 0.0 1.0 0.00 0.00 0.00 75 1008.5
20260506194426 86 25 0.0 1.0 0.00 0.00 0.00 75 1008.5
20260506193927 86 25 0.0 3.0 0.00 0.00 0.00 74 1008.5
20260506193427 86 243 0.0 2.0 0.00 0.00 0.00 76 1008.5
20260506192927 86 244 1.0 2.0 0.00 0.00 0.00 77 1008.5
20260506192427 85 248 0.0 1.0 0.00 0.00 0.00 77 1008.5
20260506191927 85 248 0.0 1.0 0.00 0.00 0.00 78 1008.7
20260506191430 84 271 1.0 1.0 0.00 0.00 0.00 79 1008.9
20260506190930 84 274 0.0 1.0 0.00 0.00 0.00 79 1009.0
20260506190427 84 274 0.0 1.0 0.00 0.00 0.00 79 1009.0
20260506185930 84 274 1.0 1.0 0.00 0.00 0.00 78 1009.1
20260506185427 85 274 0.0 1.0 0.00 0.00 0.00 78 1009.0
20260506184927 85 274 0.0 1.0 0.00 0.00 0.00 78 1009.1
20260506184426 85 274 0.0 1.0 0.00 0.00 0.00 77 1008.9
20260506183926 85 274 0.0 1.0 0.00 0.00 0.00 77 1009.1
20260506183427 85 274 1.0 1.0 0.00 0.00 0.00 77 1009.2
20260506182927 84 269 1.0 1.0 0.00 0.00 0.00 78 1009.4
20260506182427 84 269 0.0 1.0 0.00 0.00 0.00 79 1009.3
20260506181926 84 269 0.0 3.0 0.00 0.00 0.00 79 1009.4
20260506181427 83 279 0.0 3.0 0.00 0.00 0.00 79 1009.6
20260506180929 83 205 1.0 1.0 0.00 0.00 0.00 81 1009.8
20260506180427 83 205 0.0 0.0 0.00 0.00 0.00 82 1009.8
20260506175927 82 205 0.0 0.0 0.00 0.00 0.00 81 1009.8
20260506175426 82 205 0.0 0.0 0.00 0.00 0.00 82 1010.0
20260506174926 82 205 0.0 0.0 0.00 0.00 0.00 82 1010.1
20260506174430 82 205 0.0 1.0 0.00 0.00 0.00 83 1010.2
20260506173927 82 205 0.0 0.0 0.00 0.00 0.00 83 1010.2
20260506173426 82 205 0.0 0.0 0.00 0.00 0.00 83 1010.4
20260506172927 82 205 0.0 0.0 0.00 0.00 0.00 83 1010.5
20260506172427 81 205 0.0 0.0 0.00 0.00 0.00 82 1010.5
20260506171927 81 205 0.0 1.0 0.00 0.00 0.00 82 1010.6
20260506171427 81 205 0.0 0.0 0.00 0.00 0.00 82 1010.5
20260506170926 81 205 0.0 0.0 0.00 0.00 0.00 83 1010.6
20260506170427 81 205 0.0 1.0 0.00 0.00 0.00 82 1010.6
20260506165926 81 205 0.0 1.0 0.00 0.00 0.00 84 1010.6
20260506165427 81 205 1.0 1.0 0.00 0.00 0.00 84 1010.5
20260506164927 81 205 0.0 0.0 0.00 0.00 0.00 84 1010.3
20260506164426 81 205 0.0 1.0 0.00 0.00 0.00 84 1010.3
20260506163927 81 205 0.0 1.0 0.00 0.00 0.00 83 1010.3
20260506163429 81 205 0.0 1.0 0.00 0.00 0.00 84 1010.3
20260506162927 81 205 1.0 1.0 0.00 0.00 0.00 83 1010.2
20260506162426 81 205 0.0 0.0 0.00 0.00 0.00 85 1010.2
20260506161927 81 205 0.0 0.0 0.00 0.00 0.00 85 1010.1
20260506161426 81 205 0.0 0.0 0.00 0.00 0.00 85 1010.0
20260506160926 81 205 0.0 0.0 0.00 0.00 0.00 85 1010.0
20260506160426 81 205 0.0 0.0 0.00 0.00 0.00 84 1009.9
20260506155926 81 205 0.0 0.0 0.00 0.00 0.00 84 1010.0
20260506155427 81 205 0.0 0.0 0.00 0.00 0.00 84 1010.0
20260506154927 81 205 0.0 0.0 0.00 0.00 0.00 84 1010.0
20260506154427 81 205 0.0 0.0 0.00 0.00 0.00 84 1009.9
20260506153927 81 205 0.0 0.0 0.00 0.00 0.00 84 1009.9
20260506153426 81 205 0.0 0.0 0.00 0.00 0.00 83 1010.0
20260506152927 81 205 0.0 1.0 0.00 0.00 0.00 84 1009.9
20260506152427 81 205 0.0 0.0 0.00 0.00 0.00 85 1009.8
20260506151926 80 205 0.0 0.0 0.00 0.00 0.00 85 1009.7
20260506151430 80 205 0.0 1.0 0.00 0.00 0.00 85 1009.7
20260506150927 80 205 0.0 0.0 0.00 0.00 0.00 87 1009.6
20260506150427 80 205 0.0 0.0 0.00 0.00 0.00 87 1009.5
20260506145926 79 205 0.0 1.0 0.00 0.00 0.00 87 1009.5
20260506145427 79 205 0.0 1.0 0.00 0.00 0.00 87 1009.4
20260506144927 79 205 1.0 1.0 0.00 0.00 0.00 88 1009.4
20260506144427 79 205 0.0 0.0 0.00 0.00 0.00 88 1009.3
20260506143927 79 205 0.0 0.0 0.00 0.00 0.00 89 1009.2
20260506143426 79 205 0.0 0.0 0.00 0.00 0.00 89 1009.2
20260506142927 78 205 0.0 0.0 0.00 0.00 0.00 90 1009.1
20260506142430 78 205 0.0 1.0 0.00 0.00 0.00 90 1009.2
20260506141929 78 205 0.0 1.0 0.00 0.00 0.00 90 1009.2
20260506141429 78 205 0.0 0.0 0.00 0.00 0.00 90 1009.1
20260506140926 78 205 0.0 0.0 0.00 0.00 0.00 91 1009.2
20260506140427 78 205 0.0 0.0 0.00 0.00 0.00 91 1009.2
20260506135926 77 205 0.0 0.0 0.00 0.00 0.00 91 1009.3
20260506135427 77 205 0.0 0.0 0.00 0.00 0.00 91 1009.1
20260506134926 77 205 0.0 0.0 0.00 0.00 0.00 91 1009.3
20260506134427 77 205 0.0 0.0 0.00 0.00 0.00 91 1009.4
20260506133927 77 205 0.0 0.0 0.00 0.00 0.00 92 1009.4
20260506133426 77 205 0.0 0.0 0.00 0.00 0.00 92 1009.3
20260506132926 77 205 0.0 0.0 0.00 0.00 0.00 92 1009.5
20260506132430 77 205 0.0 0.0 0.00 0.00 0.00 92 1009.6
20260506131927 77 205 0.0 0.0 0.00 0.00 0.00 92 1009.6
20260506131426 77 205 0.0 0.0 0.00 0.00 0.00 92 1009.5
20260506130927 76 205 0.0 0.0 0.00 0.00 0.00 93 1009.4
20260506130427 76 205 0.0 0.0 0.00 0.00 0.00 93 1009.4
20260506125926 76 205 0.0 0.0 0.00 0.00 0.00 93 1009.4
20260506125427 76 205 0.0 0.0 0.00 0.00 0.00 93 1009.4
20260506124929 76 205 0.0 0.0 0.00 0.00 0.00 93 1009.3
20260506124426 76 205 0.0 0.0 0.00 0.00 0.00 93 1009.2
20260506123927 76 205 0.0 0.0 0.00 0.00 0.00 93 1009.4
20260506123430 76 205 0.0 0.0 0.00 0.00 0.00 93 1009.2
20260506122926 76 205 0.0 0.0 0.00 0.00 0.00 93 1009.3